Year,Month,Day,Hour,Minute,Value (Times are PST for windgust in km/hr)
2007,01,06,00,00,30.60
2007,01,06,00,01,32.20
2007,01,06,00,02,30.60
2007,01,06,00,03,43.50
2007,01,06,00,04,41.80
2007,01,06,00,05,33.80
2007,01,06,00,06,29.00
2007,01,06,00,07,32.20
2007,01,06,00,08,30.60
2007,01,06,00,09,30.60
2007,01,06,00,10,30.60
2007,01,06,00,11,32.20
2007,01,06,00,12,33.80
2007,01,06,00,13,29.00
2007,01,06,00,14,27.40
2007,01,06,00,15,45.10
2007,01,06,00,16,30.60
2007,01,06,00,17,38.60
2007,01,06,00,18,37.00
2007,01,06,00,19,46.70
2007,01,06,00,20,41.80
2007,01,06,00,21,35.40
2007,01,06,00,22,43.50
2007,01,06,00,23,40.20
2007,01,06,00,24,40.20
2007,01,06,00,25,29.00
2007,01,06,00,26,29.00
2007,01,06,00,27,33.80
2007,01,06,00,28,30.60
2007,01,06,00,29,37.00
2007,01,06,00,30,24.20
2007,01,06,00,31,29.00
2007,01,06,00,32,43.50
2007,01,06,00,33,40.20
2007,01,06,00,34,37.00
2007,01,06,00,35,48.30
2007,01,06,00,36,35.40
2007,01,06,00,37,35.40
2007,01,06,00,38,40.20
2007,01,06,00,39,48.30
2007,01,06,00,40,33.80
2007,01,06,00,41,38.60
2007,01,06,00,42,32.20
2007,01,06,00,43,33.80
2007,01,06,00,44,37.00
2007,01,06,00,45,32.20
2007,01,06,00,46,35.40
2007,01,06,00,47,38.60
2007,01,06,00,48,43.50
2007,01,06,00,49,32.20
2007,01,06,00,50,35.40
2007,01,06,00,51,37.00
2007,01,06,00,52,38.60
2007,01,06,00,53,35.40
2007,01,06,00,54,43.50
2007,01,06,00,55,29.00
2007,01,06,00,56,40.20
2007,01,06,00,57,37.00
2007,01,06,00,58,32.20
2007,01,06,00,59,41.80
2007,01,06,01,00,35.40
2007,01,06,01,01,29.00
2007,01,06,01,02,30.60
2007,01,06,01,03,33.80
2007,01,06,01,04,41.80
2007,01,06,01,05,43.50
2007,01,06,01,06,49.90
2007,01,06,01,07,29.00
2007,01,06,01,08,43.50
2007,01,06,01,09,43.50
2007,01,06,01,10,32.20
2007,01,06,01,11,19.30
2007,01,06,01,12,25.70
2007,01,06,01,13,33.80
2007,01,06,01,14,25.70
2007,01,06,01,15,43.50
2007,01,06,01,16,43.50
2007,01,06,01,17,40.20
2007,01,06,01,18,41.80
2007,01,06,01,19,40.20
2007,01,06,01,20,29.00
2007,01,06,01,21,30.60
2007,01,06,01,22,38.60
2007,01,06,01,23,24.20
2007,01,06,01,24,27.40
2007,01,06,01,25,30.60
2007,01,06,01,26,25.70
2007,01,06,01,27,29.00
2007,01,06,01,28,33.80
2007,01,06,01,29,30.60
2007,01,06,01,30,30.60
2007,01,06,01,31,22.50
2007,01,06,01,32,32.20
2007,01,06,01,33,32.20
2007,01,06,01,34,33.80
2007,01,06,01,35,30.60
2007,01,06,01,36,29.00
2007,01,06,01,37,29.00
2007,01,06,01,38,24.20
2007,01,06,01,39,24.20
2007,01,06,01,40,27.40
2007,01,06,01,41,29.00
2007,01,06,01,42,32.20
2007,01,06,01,43,25.70
2007,01,06,01,44,32.20
2007,01,06,01,45,25.70
2007,01,06,01,46,25.70
2007,01,06,01,47,22.50
2007,01,06,01,48,19.30
2007,01,06,01,49,19.30
2007,01,06,01,50,16.10
2007,01,06,01,51,16.10
2007,01,06,01,52,16.10
2007,01,06,01,53,11.30
2007,01,06,01,54,17.70
2007,01,06,01,55,24.20
2007,01,06,01,56,24.20
2007,01,06,01,57,17.70
2007,01,06,01,58,14.50
2007,01,06,01,59,14.50
2007,01,06,02,00,9.60
2007,01,06,02,01,9.60
2007,01,06,02,02,19.30
2007,01,06,02,03,19.30
2007,01,06,02,04,17.70
2007,01,06,02,05,22.50
2007,01,06,02,06,16.10
2007,01,06,02,07,17.70
2007,01,06,02,08,24.20
2007,01,06,02,09,40.20
2007,01,06,02,10,38.60
2007,01,06,02,11,29.00
2007,01,06,02,12,29.00
2007,01,06,02,13,27.40
2007,01,06,02,14,20.90
2007,01,06,02,15,16.10
2007,01,06,02,16,30.60
2007,01,06,02,17,29.00
2007,01,06,02,18,24.20
2007,01,06,02,19,24.20
2007,01,06,02,20,22.50
2007,01,06,02,21,33.80
2007,01,06,02,22,32.20
2007,01,06,02,23,41.80
2007,01,06,02,24,35.40
2007,01,06,02,25,38.60
2007,01,06,02,26,41.80
2007,01,06,02,27,33.80
2007,01,06,02,28,35.40
2007,01,06,02,29,20.90
2007,01,06,02,30,30.60
2007,01,06,02,31,32.20
2007,01,06,02,32,30.60
2007,01,06,02,33,25.70
2007,01,06,02,34,29.00
2007,01,06,02,35,30.60
2007,01,06,02,36,29.00
2007,01,06,02,37,29.00
2007,01,06,02,38,30.60
2007,01,06,02,39,29.00
2007,01,06,02,40,38.60
2007,01,06,02,41,29.00
2007,01,06,02,42,32.20
2007,01,06,02,43,25.70
2007,01,06,02,44,33.80
2007,01,06,02,45,33.80
2007,01,06,02,46,30.60
2007,01,06,02,47,29.00
2007,01,06,02,48,22.50
2007,01,06,02,49,27.40
2007,01,06,02,50,30.60
2007,01,06,02,51,25.70
2007,01,06,02,52,24.20
2007,01,06,02,53,22.50
2007,01,06,02,54,32.20
2007,01,06,02,55,27.40
2007,01,06,02,56,25.70
2007,01,06,02,57,35.40
2007,01,06,02,58,29.00
2007,01,06,02,59,22.50
2007,01,06,03,00,27.40
2007,01,06,03,01,32.20
2007,01,06,03,02,29.00
2007,01,06,03,03,24.20
2007,01,06,03,04,20.90
2007,01,06,03,05,33.80
2007,01,06,03,06,27.40
2007,01,06,03,07,27.40
2007,01,06,03,08,22.50
2007,01,06,03,09,32.20
2007,01,06,03,10,43.50
2007,01,06,03,11,27.40
2007,01,06,03,12,33.80
2007,01,06,03,13,32.20
2007,01,06,03,14,32.20
2007,01,06,03,15,30.60
2007,01,06,03,16,30.60
2007,01,06,03,17,33.80
2007,01,06,03,18,29.00
2007,01,06,03,19,27.40
2007,01,06,03,20,37.00
2007,01,06,03,21,35.40
2007,01,06,03,22,33.80
2007,01,06,03,23,33.80
2007,01,06,03,24,29.00
2007,01,06,03,25,29.00
2007,01,06,03,26,29.00
2007,01,06,03,27,37.00
2007,01,06,03,28,25.70
2007,01,06,03,29,20.90
2007,01,06,03,30,20.90
2007,01,06,03,31,25.70
2007,01,06,03,32,29.00
2007,01,06,03,33,30.60
2007,01,06,03,34,32.20
2007,01,06,03,35,33.80
2007,01,06,03,36,30.60
2007,01,06,03,37,41.80
2007,01,06,03,38,30.60
2007,01,06,03,39,22.50
2007,01,06,03,40,25.70
2007,01,06,03,41,30.60
2007,01,06,03,42,35.40
2007,01,06,03,43,30.60
2007,01,06,03,44,32.20
2007,01,06,03,45,24.20
2007,01,06,03,46,25.70
2007,01,06,03,47,33.80
2007,01,06,03,48,41.80
2007,01,06,03,49,32.20
2007,01,06,03,50,37.00
2007,01,06,03,51,35.40
2007,01,06,03,52,29.00
2007,01,06,03,53,30.60
2007,01,06,03,54,25.70
2007,01,06,03,55,29.00
2007,01,06,03,56,25.70
2007,01,06,03,57,33.80
2007,01,06,03,58,32.20
2007,01,06,03,59,24.20
2007,01,06,04,00,27.40
2007,01,06,04,01,32.20
2007,01,06,04,02,32.20
2007,01,06,04,03,29.00
2007,01,06,04,04,29.00
2007,01,06,04,05,30.60
2007,01,06,04,06,25.70
2007,01,06,04,07,27.40
2007,01,06,04,08,27.40
2007,01,06,04,09,20.90
2007,01,06,04,10,20.90
2007,01,06,04,11,17.70
2007,01,06,04,12,22.50
2007,01,06,04,13,33.80
2007,01,06,04,14,27.40
2007,01,06,04,15,24.20
2007,01,06,04,16,29.00
2007,01,06,04,17,29.00
2007,01,06,04,18,32.20
2007,01,06,04,19,27.40
2007,01,06,04,20,24.20
2007,01,06,04,21,29.00
2007,01,06,04,22,25.70
2007,01,06,04,23,22.50
2007,01,06,04,24,22.50
2007,01,06,04,25,27.40
2007,01,06,04,26,25.70
2007,01,06,04,27,24.20
2007,01,06,04,28,17.70
2007,01,06,04,29,22.50
2007,01,06,04,30,24.20
2007,01,06,04,31,22.50
2007,01,06,04,32,25.70
2007,01,06,04,33,30.60
2007,01,06,04,34,24.20
2007,01,06,04,35,22.50
2007,01,06,04,36,20.90
2007,01,06,04,37,29.00
2007,01,06,04,38,30.60
2007,01,06,04,39,20.90
2007,01,06,04,40,20.90
2007,01,06,04,41,9.60
2007,01,06,04,42,9.60
2007,01,06,04,43,20.90
2007,01,06,04,44,20.90
2007,01,06,04,45,27.40
2007,01,06,04,46,17.70
2007,01,06,04,47,20.90
2007,01,06,04,48,32.20
2007,01,06,04,49,32.20
2007,01,06,04,50,20.90
2007,01,06,04,51,27.40
2007,01,06,04,52,29.00
2007,01,06,04,53,30.60
2007,01,06,04,54,24.20
2007,01,06,04,55,27.40
2007,01,06,04,56,20.90
2007,01,06,04,57,24.20
2007,01,06,04,58,22.50
2007,01,06,04,59,22.50
2007,01,06,05,00,22.50
2007,01,06,05,01,27.40
2007,01,06,05,02,22.50
2007,01,06,05,03,22.50
2007,01,06,05,04,24.20
2007,01,06,05,05,22.50
2007,01,06,05,06,17.70
2007,01,06,05,07,16.10
2007,01,06,05,08,20.90
2007,01,06,05,09,17.70
2007,01,06,05,10,11.30
2007,01,06,05,11,19.30
2007,01,06,05,12,19.30
2007,01,06,05,13,19.30
2007,01,06,05,14,25.70
2007,01,06,05,15,19.30
2007,01,06,05,16,14.50
2007,01,06,05,17,16.10
2007,01,06,05,18,16.10
2007,01,06,05,19,12.90
2007,01,06,05,20,20.90
2007,01,06,05,21,16.10
2007,01,06,05,22,17.70
2007,01,06,05,23,16.10
2007,01,06,05,24,14.50
2007,01,06,05,25,9.60
2007,01,06,05,26,14.50
2007,01,06,05,27,11.30
2007,01,06,05,28,11.30
2007,01,06,05,29,4.80
2007,01,06,05,30,1.60
2007,01,06,05,31,12.90
2007,01,06,05,32,20.90
2007,01,06,05,33,22.50
2007,01,06,05,34,22.50
2007,01,06,05,35,22.50
2007,01,06,05,36,22.50
2007,01,06,05,37,22.50
2007,01,06,05,38,22.50
2007,01,06,05,39,22.50
2007,01,06,05,40,16.10
2007,01,06,05,41,16.10
2007,01,06,05,42,19.30
2007,01,06,05,43,17.70
2007,01,06,05,44,17.70
2007,01,06,05,45,12.90
2007,01,06,05,46,17.70
2007,01,06,05,47,16.10
2007,01,06,05,48,17.70
2007,01,06,05,49,16.10
2007,01,06,05,50,19.30
2007,01,06,05,51,16.10
2007,01,06,05,52,12.90
2007,01,06,05,53,12.90
2007,01,06,05,54,12.90
2007,01,06,05,55,19.30
2007,01,06,05,56,16.10
2007,01,06,05,57,14.50
2007,01,06,05,58,11.30
2007,01,06,05,59,11.30
2007,01,06,06,00,14.50
2007,01,06,06,01,8.10
2007,01,06,06,02,14.50
2007,01,06,06,03,6.40
2007,01,06,06,04,6.40
2007,01,06,06,05,6.40
2007,01,06,06,06,9.60
2007,01,06,06,07,8.10
2007,01,06,06,08,4.80
2007,01,06,06,09,6.40
2007,01,06,06,10,9.60
2007,01,06,06,11,8.10
2007,01,06,06,12,6.40
2007,01,06,06,13,6.40
2007,01,06,06,14,4.80
2007,01,06,06,15,1.60
2007,01,06,06,16,4.80
2007,01,06,06,17,4.80
2007,01,06,06,18,4.80
2007,01,06,06,19,6.40
2007,01,06,06,20,6.40
2007,01,06,06,21,6.40
2007,01,06,06,22,3.20
2007,01,06,06,23,6.40
2007,01,06,06,24,4.80
2007,01,06,06,25,4.80
2007,01,06,06,26,4.80
2007,01,06,06,27,3.20
2007,01,06,06,28,6.40
2007,01,06,06,29,6.40
2007,01,06,06,30,4.80
2007,01,06,06,31,6.40
2007,01,06,06,32,3.20
2007,01,06,06,33,3.20
2007,01,06,06,34,4.80
2007,01,06,06,35,3.20
2007,01,06,06,36,4.80
2007,01,06,06,37,3.20
2007,01,06,06,38,3.20
2007,01,06,06,39,3.20
2007,01,06,06,40,3.20
2007,01,06,06,41,4.80
2007,01,06,06,42,4.80
2007,01,06,06,43,8.10
2007,01,06,06,44,9.60
2007,01,06,06,45,8.10
2007,01,06,06,46,8.10
2007,01,06,06,47,8.10
2007,01,06,06,48,8.10
2007,01,06,06,49,8.10
2007,01,06,06,50,8.10
2007,01,06,06,51,6.40
2007,01,06,06,52,6.40
2007,01,06,06,53,6.40
2007,01,06,06,54,6.40
2007,01,06,06,55,4.80
2007,01,06,06,56,4.80
2007,01,06,06,57,4.80
2007,01,06,06,58,4.80
2007,01,06,06,59,4.80
2007,01,06,07,00,3.20
2007,01,06,07,01,4.80
2007,01,06,07,02,6.40
2007,01,06,07,03,6.40
2007,01,06,07,04,6.40
2007,01,06,07,05,4.80
2007,01,06,07,06,4.80
2007,01,06,07,07,6.40
2007,01,06,07,08,4.80
2007,01,06,07,09,4.80
2007,01,06,07,10,3.20
2007,01,06,07,11,3.20
2007,01,06,07,12,4.80
2007,01,06,07,13,6.40
2007,01,06,07,14,3.20
2007,01,06,07,15,8.10
2007,01,06,07,16,6.40
2007,01,06,07,17,4.80
2007,01,06,07,18,4.80
2007,01,06,07,19,3.20
2007,01,06,07,20,6.40
2007,01,06,07,21,4.80
2007,01,06,07,22,6.40
2007,01,06,07,23,6.40
2007,01,06,07,24,4.80
2007,01,06,07,25,6.40
2007,01,06,07,26,6.40
2007,01,06,07,27,9.60
2007,01,06,07,28,8.10
2007,01,06,07,29,6.40
2007,01,06,07,30,6.40
2007,01,06,07,31,4.80
2007,01,06,07,32,4.80
2007,01,06,07,33,4.80
2007,01,06,07,34,8.10
2007,01,06,07,35,8.10
2007,01,06,07,36,9.60
2007,01,06,07,37,9.60
2007,01,06,07,38,6.40
2007,01,06,07,39,6.40
2007,01,06,07,40,4.80
2007,01,06,07,41,4.80
2007,01,06,07,42,8.10
2007,01,06,07,43,3.20
2007,01,06,07,44,3.20
2007,01,06,07,45,3.20
2007,01,06,07,46,1.60
2007,01,06,07,47,3.20
2007,01,06,07,48,3.20
2007,01,06,07,49,4.80
2007,01,06,07,50,8.10
2007,01,06,07,51,4.80
2007,01,06,07,52,3.20
2007,01,06,07,53,4.80
2007,01,06,07,54,4.80
2007,01,06,07,55,6.40
2007,01,06,07,56,6.40
2007,01,06,07,57,3.20
2007,01,06,07,58,4.80
2007,01,06,07,59,3.20
2007,01,06,08,00,1.60
2007,01,06,08,01,3.20
2007,01,06,08,02,4.80
2007,01,06,08,03,6.40
2007,01,06,08,04,6.40
2007,01,06,08,05,6.40
2007,01,06,08,06,6.40
2007,01,06,08,07,6.40
2007,01,06,08,08,4.80
2007,01,06,08,09,6.40
2007,01,06,08,10,4.80
2007,01,06,08,11,4.80
2007,01,06,08,12,4.80
2007,01,06,08,13,8.10
2007,01,06,08,14,6.40
2007,01,06,08,15,6.40
2007,01,06,08,16,12.90
2007,01,06,08,17,16.10
2007,01,06,08,18,19.30
2007,01,06,08,19,16.10
2007,01,06,08,20,9.60
2007,01,06,08,21,11.30
2007,01,06,08,22,9.60
2007,01,06,08,23,4.80
2007,01,06,08,24,11.30
2007,01,06,08,25,17.70
2007,01,06,08,26,17.70
2007,01,06,08,27,16.10
2007,01,06,08,28,16.10
2007,01,06,08,29,16.10
2007,01,06,08,30,14.50
2007,01,06,08,31,14.50
2007,01,06,08,32,14.50
2007,01,06,08,33,19.30
2007,01,06,08,34,17.70
2007,01,06,08,35,16.10
2007,01,06,08,36,16.10
2007,01,06,08,37,16.10
2007,01,06,08,38,11.30
2007,01,06,08,39,14.50
2007,01,06,08,40,14.50
2007,01,06,08,41,16.10
2007,01,06,08,42,16.10
2007,01,06,08,43,14.50
2007,01,06,08,44,19.30
2007,01,06,08,45,17.70
2007,01,06,08,46,17.70
2007,01,06,08,47,20.90
2007,01,06,08,48,25.70
2007,01,06,08,49,17.70
2007,01,06,08,50,19.30
2007,01,06,08,51,9.60
2007,01,06,08,52,14.50
2007,01,06,08,53,11.30
2007,01,06,08,54,14.50
2007,01,06,08,55,11.30
2007,01,06,08,56,14.50
2007,01,06,08,57,11.30
2007,01,06,08,58,14.50
2007,01,06,08,59,16.10
2007,01,06,09,00,17.70
2007,01,06,09,01,22.50
2007,01,06,09,02,19.30
2007,01,06,09,03,12.90
2007,01,06,09,04,16.10
2007,01,06,09,05,22.50
2007,01,06,09,06,25.70
2007,01,06,09,07,20.90
2007,01,06,09,08,20.90
2007,01,06,09,09,17.70
2007,01,06,09,10,19.30
2007,01,06,09,11,12.90
2007,01,06,09,12,11.30
2007,01,06,09,13,14.50
2007,01,06,09,14,8.10
2007,01,06,09,15,8.10
2007,01,06,09,16,14.50
2007,01,06,09,17,8.10
2007,01,06,09,18,6.40
2007,01,06,09,19,8.10
2007,01,06,09,20,11.30
2007,01,06,09,21,19.30
2007,01,06,09,22,16.10
2007,01,06,09,23,19.30
2007,01,06,09,24,22.50
2007,01,06,09,25,16.10
2007,01,06,09,26,14.50
2007,01,06,09,27,14.50
2007,01,06,09,28,16.10
2007,01,06,09,29,14.50
2007,01,06,09,30,22.50
2007,01,06,09,31,20.90
2007,01,06,09,32,9.60
2007,01,06,09,33,17.70
2007,01,06,09,34,11.30
2007,01,06,09,35,22.50
2007,01,06,09,36,19.30
2007,01,06,09,37,16.10
2007,01,06,09,38,14.50
2007,01,06,09,39,22.50
2007,01,06,09,40,20.90
2007,01,06,09,41,20.90
2007,01,06,09,42,19.30
2007,01,06,09,43,19.30
2007,01,06,09,44,17.70
2007,01,06,09,45,19.30
2007,01,06,09,46,17.70
2007,01,06,09,47,17.70
2007,01,06,09,48,24.20
2007,01,06,09,49,22.50
2007,01,06,09,50,19.30
2007,01,06,09,51,25.70
2007,01,06,09,52,25.70
2007,01,06,09,53,17.70
2007,01,06,09,54,9.60
2007,01,06,09,55,24.20
2007,01,06,09,56,27.40
2007,01,06,09,57,30.60
2007,01,06,09,58,35.40
2007,01,06,09,59,27.40
2007,01,06,10,00,30.60
2007,01,06,10,01,32.20
2007,01,06,10,02,37.00
2007,01,06,10,03,40.20
2007,01,06,10,04,41.80
2007,01,06,10,05,45.10
2007,01,06,10,06,45.10
2007,01,06,10,07,38.60
2007,01,06,10,08,40.20
2007,01,06,10,09,33.80
2007,01,06,10,10,27.40
2007,01,06,10,11,35.40
2007,01,06,10,12,35.40
2007,01,06,10,13,32.20
2007,01,06,10,14,29.00
2007,01,06,10,15,22.50
2007,01,06,10,16,29.00
2007,01,06,10,17,27.40
2007,01,06,10,18,20.90
2007,01,06,10,19,27.40
2007,01,06,10,20,24.20
2007,01,06,10,21,25.70
2007,01,06,10,22,38.60
2007,01,06,10,23,37.00
2007,01,06,10,24,22.50
2007,01,06,10,25,25.70
2007,01,06,10,26,17.70
2007,01,06,10,27,11.30
2007,01,06,10,28,22.50
2007,01,06,10,29,22.50
2007,01,06,10,30,20.90
2007,01,06,10,31,19.30
2007,01,06,10,32,22.50
2007,01,06,10,33,16.10
2007,01,06,10,34,20.90
2007,01,06,10,35,19.30
2007,01,06,10,36,16.10
2007,01,06,10,37,19.30
2007,01,06,10,38,20.90
2007,01,06,10,39,20.90
2007,01,06,10,40,20.90
2007,01,06,10,41,17.70
2007,01,06,10,42,19.30
2007,01,06,10,43,19.30
2007,01,06,10,44,22.50
2007,01,06,10,45,19.30
2007,01,06,10,46,27.40
2007,01,06,10,47,25.70
2007,01,06,10,48,19.30
2007,01,06,10,49,16.10
2007,01,06,10,50,17.70
2007,01,06,10,51,16.10
2007,01,06,10,52,17.70
2007,01,06,10,53,19.30
2007,01,06,10,54,19.30
2007,01,06,10,55,17.70
2007,01,06,10,56,16.10
2007,01,06,10,57,12.90
2007,01,06,10,58,22.50
2007,01,06,10,59,25.70
2007,01,06,11,00,17.70
2007,01,06,11,01,19.30
2007,01,06,11,02,19.30
2007,01,06,11,03,20.90
2007,01,06,11,04,11.30
2007,01,06,11,05,9.60
2007,01,06,11,06,14.50
2007,01,06,11,07,16.10
2007,01,06,11,08,19.30
2007,01,06,11,09,16.10
2007,01,06,11,10,24.20
2007,01,06,11,11,17.70
2007,01,06,11,12,22.50
2007,01,06,11,13,24.20
2007,01,06,11,14,22.50
2007,01,06,11,15,22.50
2007,01,06,11,16,11.30
2007,01,06,11,17,19.30
2007,01,06,11,18,24.20
2007,01,06,11,19,29.00
2007,01,06,11,20,29.00
2007,01,06,11,21,24.20
2007,01,06,11,22,19.30
2007,01,06,11,23,17.70
2007,01,06,11,24,25.70
2007,01,06,11,25,22.50
2007,01,06,11,26,20.90
2007,01,06,11,27,22.50
2007,01,06,11,28,25.70
2007,01,06,11,29,22.50
2007,01,06,11,30,20.90
2007,01,06,11,31,16.10
2007,01,06,11,32,19.30
2007,01,06,11,33,19.30
2007,01,06,11,34,20.90
2007,01,06,11,35,17.70
2007,01,06,11,36,12.90
2007,01,06,11,37,19.30
2007,01,06,11,38,16.10
2007,01,06,11,39,17.70
2007,01,06,11,40,20.90
2007,01,06,11,41,25.70
2007,01,06,11,42,25.70
2007,01,06,11,43,22.50
2007,01,06,11,44,17.70
2007,01,06,11,45,20.90
2007,01,06,11,46,22.50
2007,01,06,11,47,24.20
2007,01,06,11,48,19.30
2007,01,06,11,49,19.30
2007,01,06,11,50,19.30
2007,01,06,11,51,20.90
2007,01,06,11,52,22.50
2007,01,06,11,53,24.20
2007,01,06,11,54,22.50
2007,01,06,11,55,19.30
2007,01,06,11,56,16.10
2007,01,06,11,57,16.10
2007,01,06,11,58,22.50
2007,01,06,11,59,24.20
2007,01,06,12,00,16.10
2007,01,06,12,01,14.50
2007,01,06,12,02,14.50
2007,01,06,12,03,14.50
2007,01,06,12,04,14.50
2007,01,06,12,05,14.50
2007,01,06,12,06,14.50
2007,01,06,12,07,17.70
2007,01,06,12,08,17.70
2007,01,06,12,09,19.30
2007,01,06,12,10,19.30
2007,01,06,12,11,14.50
2007,01,06,12,12,17.70
2007,01,06,12,13,19.30
2007,01,06,12,14,19.30
2007,01,06,12,15,17.70
2007,01,06,12,16,16.10
2007,01,06,12,17,17.70
2007,01,06,12,18,19.30
2007,01,06,12,19,16.10
2007,01,06,12,20,17.70
2007,01,06,12,21,19.30
2007,01,06,12,22,19.30
2007,01,06,12,23,22.50
2007,01,06,12,24,19.30
2007,01,06,12,25,16.10
2007,01,06,12,26,17.70
2007,01,06,12,27,19.30
2007,01,06,12,28,17.70
2007,01,06,12,29,19.30
2007,01,06,12,30,17.70
2007,01,06,12,31,16.10
2007,01,06,12,32,17.70
2007,01,06,12,33,14.50
2007,01,06,12,34,12.90
2007,01,06,12,35,19.30
2007,01,06,12,36,19.30
2007,01,06,12,37,17.70
2007,01,06,12,38,16.10
2007,01,06,12,39,14.50
2007,01,06,12,40,14.50
2007,01,06,12,41,16.10
2007,01,06,12,42,14.50
2007,01,06,12,43,16.10
2007,01,06,12,44,17.70
2007,01,06,12,45,17.70
2007,01,06,12,46,19.30
2007,01,06,12,47,20.90
2007,01,06,12,48,22.50
2007,01,06,12,49,29.00
2007,01,06,12,50,19.30
2007,01,06,12,51,14.50
2007,01,06,12,52,22.50
2007,01,06,12,53,16.10
2007,01,06,12,54,16.10
2007,01,06,12,55,17.70
2007,01,06,12,56,14.50
2007,01,06,12,57,11.30
2007,01,06,12,58,14.50
2007,01,06,12,59,19.30
2007,01,06,13,00,17.70
2007,01,06,13,01,19.30
2007,01,06,13,02,25.70
2007,01,06,13,03,27.40
2007,01,06,13,04,19.30
2007,01,06,13,05,19.30
2007,01,06,13,06,24.20
2007,01,06,13,07,27.40
2007,01,06,13,08,27.40
2007,01,06,13,09,22.50
2007,01,06,13,10,16.10
2007,01,06,13,11,19.30
2007,01,06,13,12,20.90
2007,01,06,13,13,20.90
2007,01,06,13,14,22.50
2007,01,06,13,15,11.30
2007,01,06,13,16,9.60
2007,01,06,13,17,22.50
2007,01,06,13,18,20.90
2007,01,06,13,19,17.70
2007,01,06,13,20,16.10
2007,01,06,13,21,22.50
2007,01,06,13,22,17.70
2007,01,06,13,23,20.90
2007,01,06,13,24,20.90
2007,01,06,13,25,24.20
2007,01,06,13,26,24.20
2007,01,06,13,27,24.20
2007,01,06,13,28,16.10
2007,01,06,13,29,17.70
2007,01,06,13,30,27.40
2007,01,06,13,31,22.50
2007,01,06,13,32,19.30
2007,01,06,13,33,19.30
2007,01,06,13,34,20.90
2007,01,06,13,35,12.90
2007,01,06,13,36,16.10
2007,01,06,13,37,11.30
2007,01,06,13,38,22.50
2007,01,06,13,39,22.50
2007,01,06,13,40,20.90
2007,01,06,13,41,29.00
2007,01,06,13,42,29.00
2007,01,06,13,43,25.70
2007,01,06,13,44,25.70
2007,01,06,13,45,19.30
2007,01,06,13,46,17.70
2007,01,06,13,47,20.90
2007,01,06,13,48,17.70
2007,01,06,13,49,19.30
2007,01,06,13,50,27.40
2007,01,06,13,51,30.60
2007,01,06,13,52,20.90
2007,01,06,13,53,17.70
2007,01,06,13,54,9.60
2007,01,06,13,55,9.60
2007,01,06,13,56,17.70
2007,01,06,13,57,12.90
2007,01,06,13,58,16.10
2007,01,06,13,59,19.30
2007,01,06,14,00,24.20
2007,01,06,14,01,24.20
2007,01,06,14,02,16.10
2007,01,06,14,03,11.30
2007,01,06,14,04,14.50
2007,01,06,14,05,17.70
2007,01,06,14,06,16.10
2007,01,06,14,07,17.70
2007,01,06,14,08,14.50
2007,01,06,14,09,16.10
2007,01,06,14,10,12.90
2007,01,06,14,11,12.90
2007,01,06,14,12,20.90
2007,01,06,14,13,16.10
2007,01,06,14,14,14.50
2007,01,06,14,15,19.30
2007,01,06,14,16,9.60
2007,01,06,14,17,11.30
2007,01,06,14,18,4.80
2007,01,06,14,19,4.80
2007,01,06,14,20,11.30
2007,01,06,14,21,17.70
2007,01,06,14,22,17.70
2007,01,06,14,23,11.30
2007,01,06,14,24,16.10
2007,01,06,14,25,16.10
2007,01,06,14,26,17.70
2007,01,06,14,27,9.60
2007,01,06,14,28,9.60
2007,01,06,14,29,17.70
2007,01,06,14,30,19.30
2007,01,06,14,31,22.50
2007,01,06,14,32,25.70
2007,01,06,14,33,22.50
2007,01,06,14,34,25.70
2007,01,06,14,35,25.70
2007,01,06,14,36,29.00
2007,01,06,14,37,17.70
2007,01,06,14,38,27.40
2007,01,06,14,39,24.20
2007,01,06,14,40,19.30
2007,01,06,14,41,30.60
2007,01,06,14,42,29.00
2007,01,06,14,43,30.60
2007,01,06,14,44,20.90
2007,01,06,14,45,22.50
2007,01,06,14,46,16.10
2007,01,06,14,47,19.30
2007,01,06,14,48,12.90
2007,01,06,14,49,19.30
2007,01,06,14,50,17.70
2007,01,06,14,51,20.90
2007,01,06,14,52,19.30
2007,01,06,14,53,19.30
2007,01,06,14,54,20.90
2007,01,06,14,55,22.50
2007,01,06,14,56,16.10
2007,01,06,14,57,24.20
2007,01,06,14,58,24.20
2007,01,06,14,59,20.90
2007,01,06,15,00,20.90
2007,01,06,15,01,19.30
2007,01,06,15,02,16.10
2007,01,06,15,03,20.90
2007,01,06,15,04,17.70
2007,01,06,15,05,27.40
2007,01,06,15,06,22.50
2007,01,06,15,07,16.10
2007,01,06,15,08,19.30
2007,01,06,15,09,20.90
2007,01,06,15,10,19.30
2007,01,06,15,11,22.50
2007,01,06,15,12,32.20
2007,01,06,15,13,27.40
2007,01,06,15,14,30.60
2007,01,06,15,15,25.70
2007,01,06,15,16,24.20
2007,01,06,15,17,24.20
2007,01,06,15,18,22.50
2007,01,06,15,19,19.30
2007,01,06,15,20,16.10
2007,01,06,15,21,24.20
2007,01,06,15,22,17.70
2007,01,06,15,23,19.30
2007,01,06,15,24,20.90
2007,01,06,15,25,19.30
2007,01,06,15,26,20.90
2007,01,06,15,27,35.40
2007,01,06,15,28,25.70
2007,01,06,15,29,25.70
2007,01,06,15,30,25.70
2007,01,06,15,31,30.60
2007,01,06,15,32,24.20
2007,01,06,15,33,22.50
2007,01,06,15,34,37.00
2007,01,06,15,35,27.40
2007,01,06,15,36,25.70
2007,01,06,15,37,25.70
2007,01,06,15,38,27.40
2007,01,06,15,39,20.90
2007,01,06,15,40,22.50
2007,01,06,15,41,22.50
2007,01,06,15,42,19.30
2007,01,06,15,43,20.90
2007,01,06,15,44,30.60
2007,01,06,15,45,27.40
2007,01,06,15,46,29.00
2007,01,06,15,47,20.90
2007,01,06,15,48,20.90
2007,01,06,15,49,22.50
2007,01,06,15,50,22.50
2007,01,06,15,51,17.70
2007,01,06,15,52,16.10
2007,01,06,15,53,17.70
2007,01,06,15,54,11.30
2007,01,06,15,55,11.30
2007,01,06,15,56,9.60
2007,01,06,15,57,14.50
2007,01,06,15,58,11.30
2007,01,06,15,59,9.60
2007,01,06,16,00,11.30
2007,01,06,16,01,16.10
2007,01,06,16,02,12.90
2007,01,06,16,03,9.60
2007,01,06,16,04,14.50
2007,01,06,16,05,11.30
2007,01,06,16,06,9.60
2007,01,06,16,07,11.30
2007,01,06,16,08,17.70
2007,01,06,16,09,16.10
2007,01,06,16,10,11.30
2007,01,06,16,11,11.30
2007,01,06,16,12,14.50
2007,01,06,16,13,11.30
2007,01,06,16,14,11.30
2007,01,06,16,15,11.30
2007,01,06,16,16,11.30
2007,01,06,16,17,17.70
2007,01,06,16,18,19.30
2007,01,06,16,19,12.90
2007,01,06,16,20,12.90
2007,01,06,16,21,12.90
2007,01,06,16,22,12.90
2007,01,06,16,23,17.70
2007,01,06,16,24,17.70
2007,01,06,16,25,19.30
2007,01,06,16,26,16.10
2007,01,06,16,27,19.30
2007,01,06,16,28,16.10
2007,01,06,16,29,16.10
2007,01,06,16,30,22.50
2007,01,06,16,31,35.40
2007,01,06,16,32,37.00
2007,01,06,16,33,37.00
2007,01,06,16,34,27.40
2007,01,06,16,35,27.40
2007,01,06,16,36,25.70
2007,01,06,16,37,30.60
2007,01,06,16,38,24.20
2007,01,06,16,39,22.50
2007,01,06,16,40,29.00
2007,01,06,16,41,20.90
2007,01,06,16,42,14.50
2007,01,06,16,43,25.70
2007,01,06,16,44,20.90
2007,01,06,16,45,19.30
2007,01,06,16,46,14.50
2007,01,06,16,47,11.30
2007,01,06,16,48,16.10
2007,01,06,16,49,11.30
2007,01,06,16,50,11.30
2007,01,06,16,51,17.70
2007,01,06,16,52,11.30
2007,01,06,16,53,9.60
2007,01,06,16,54,4.80
2007,01,06,16,55,4.80
2007,01,06,16,56,4.80
2007,01,06,16,57,11.30
2007,01,06,16,58,16.10
2007,01,06,16,59,12.90
2007,01,06,17,00,9.60
2007,01,06,17,01,8.10
2007,01,06,17,02,8.10
2007,01,06,17,03,8.10
2007,01,06,17,04,11.30
2007,01,06,17,05,8.10
2007,01,06,17,06,8.10
2007,01,06,17,07,9.60
2007,01,06,17,08,8.10
2007,01,06,17,09,4.80
2007,01,06,17,10,9.60
2007,01,06,17,11,6.40
2007,01,06,17,12,6.40
2007,01,06,17,13,8.10
2007,01,06,17,14,6.40
2007,01,06,17,15,4.80
2007,01,06,17,16,4.80
2007,01,06,17,17,4.80
2007,01,06,17,18,3.20
2007,01,06,17,19,4.80
2007,01,06,17,20,6.40
2007,01,06,17,21,6.40
2007,01,06,17,22,6.40
2007,01,06,17,23,8.10
2007,01,06,17,24,6.40
2007,01,06,17,25,11.30
2007,01,06,17,26,8.10
2007,01,06,17,27,8.10